Location: Unspecified
(51.0950°N, 12.9690°E)
Time: 21:16:27
(UTC+00:00)

BlueWalker 3 - Visible Passes

Search period start: 03 December 2023 00:00
Search period end: 13 December 2023 00:00
Orbit: 489 x 503 km, 53.2° (Epoch: 03 December)

Date Brightness Start Highest point End Pass type
(mag) Time Alt. Az. Time Alt. Az. Time Alt. Az.
03 Dec 4.1 03:41:02 22° SE 03:41:02 22° SE 03:42:32 10° ESE visible
03 Dec 3.7 05:15:36 17° WSW 05:16:36 18° SW 05:19:16 10° S visible
04 Dec 5.0 03:19:34 12° ESE 03:19:34 12° ESE 03:19:54 10° ESE visible
04 Dec 3.7 04:54:08 18° SW 04:54:08 18° SW 04:56:38 10° S visible
05 Dec 4.1 04:32:42 15° SSW 04:32:42 15° SSW 04:34:00 10° S visible
